SCP
0 0 0 0 0 0 0 0 0 0 0 0 0 0 0 0 0 0 0 0 0 0 0 0 0 0 0 0 0 0 0 0 0 0 0 0 0 0 0 0 0 0 0
0 0 0 0 0 0 0 0 0 0 0 0 0 0 0 0 0 0 0 0 0 0 0 0 0 0 0 0 0 0 0 0 0 0 0 0 0 0 0 0 0 0 0
0 0 0 0 0 0 0 0 0 0 0 0 0 0 0 0 0 0 0 0 0 0 0 0 0 0 0 0 0 0 0 0 0 0 0 0 0 0 0 0 0 0 0
0 0 0 0 0 0 0 0 0 0 0 0 0 0 0 0 0 0 0 0 0 0 0 0 0 0 0 0 0 0 0 0 0 0 0 0 0 0 0 0 0 0 0
0 0 0 0 0 0 0 0 0 0 0 0 0 0 0 0 0 0 0 0 0 0 0 0 0 0 0 0 0 0 0 0 0 0 0 0 0 0 0 0 0 0 0
0 0 0 0 0 0 0 0 0 0 0 0 0 0 0 0 0 0 0 0 0 0 0 0 0 0 0 0 0 0 0 0 0 0 0 0 0 0 0 0 0 0 0
0 0 0 0 0 0 0 0 0 0 0 0 0 0 0 0 0 0 0 0 0 0 0 0 0 0 0 0 0 0 0 0 0 0 0 0 0 0 0 0 0 0 0
0 0 0 0 0 0 0 0 0 0 0 0 0 0 0 0 0 0 0 0 0 0 0 0 0 0 0 0 0 0 0 0 0 0 0 0 0 0 0 0 0 0 0
0 0 0 0 0 0 0 0 0 0 0 0 0 0 0 0 0 0 0 0 0 0 0 0 0 0 0 0 0 0 0 0 0 0 0 0 0 0 0 0 0 0 0
0 0 0 0 0 0 0 0 0 0 0 0 0 0 0 0 0 0 0 0 0 0 0 0 0 0 0 0 0 0 0 0 0 0 0 0 0 0 0 0 0 0 0
0 0 0 0 0 0 0 0 0 0 0 0 0 0 0 0 0 0 0 0 0 0 -0 -0 0 0 0 0 0 0 0 0 0 0 0 0 0 0 0 0 0 0 0
0 0 0 0 0 0 0 0 0 0 0 0 0 0 0 0 0 0 0 0 0 0 0 -0 0 0 0 0 0 0 0 0 0 0 0 0 0 0 0 0 0 0 0
0 0 0 0 0 0 0 0 0 0 0 0 0 0 0 0 0 0 0 0 0 0 0 -0 0 0 0 0 0 0 0 0 0 0 0 0 0 0 0 0 0 0 0
0 0 0 0 0 0 0 0 0 0 0 0 0 0 0 0 0 0 0 0 0 0 0 -0 -0 0 0 0 0 0 0 0 0 0 0 0 0 0 0 0 0 0 0
0 0 0 0 0 0 0 0 0 0 0 0 0 0 0 0 0 0 0 0 0 0 0 0 0 0 0 0 0 0 0 0 0 0 0 0 0 0 0 0 0 0 0
0 0 0 0 0 0 0 0 0 0 0 0 0 0 0 0 0 0 0 0 0 0 0 0 0 0 0 0 0 0 0 0 0 0 0 0 0 0 0 0 0 0 0
0 0 0 0 0 0 0 0 0 0 0 0 0 0 0 0 0 0 0 0 0 0 0 0 0 0 0 0 0 0 0 0 0 0 0 0 0 0 0 0 0 0 0
0 0 0 0 0 0 0 0 0 0 0 0 0 0 0 0 0 0 0 0 0 0 0 0 0 0 0 0 0 0 0 0 0 0 0 0 0 0 0 0 0 0 0
0 0 0 0 0 0 0 0 0 0 0 0 0 0 0 0 0 0 0 0 0 0 0 0 0 0 0 0 0 0 0 0 0 0 0 0 0 0 0 0 0 0 0
0 0 0 0 0 0 0 0 0 0 0 0 0 0 0 0 0 0 0 0 0 0 0 0 0 0 0 0 0 0 0 0 0 0 0 0 0 0 0 0 0 0 0
0 0 0 0 0 0 0 0 0 0 0 0 0 0 0 0 0 0 0 0 0 0 0 0 0 0 0 0 0 0 0 0 0 0 0 0 0 0 0 0 0 0 0
0 0 0 0 0 0 0 0 0 0 0 0 0 0 0 0 0 0 0 0 0 0 0 0 0 0 0 0 0 0 0 0 0 0 0 0 0 0 0 0 0 0 0
0 0 0 0 0 0 0 0 0 0 0 0 0 0 0 0 0 0 0 0 0 0 0 0 0 0 0 0 0 0 0 0 0 0 0 0 0 0 0 0 0 0 0
0 0 0 0 0 0 0 0 0 0 0 0 0 0 0 0 0 0 0 0 0 0 0 0 0 0 0 0 0 0 0 0 0 0 0 0 0 0 0 0 0 0 0
0 0 0 0 0 0 0 0 0 0 0 0 0 0 0 0 0 0 0 0 0 0 0 0 0 0 0 0 0 0 0 0 0 0 0 0 0 0 0 0 0 0 0
0 0 0 0 0 0 0 0 0 0 0 0 0 0 0 0 0 0 0 0 0 0 0 0 0 0 0 0 0 0 0 0 0 0 0 0 0 0 0 0 0 0 0
Wind_Speed
2 1 1 1 1 0 0 1 1 1 1 1 1 1 1 1 1 1 1 2 1 2 3 2 3 3 2 2 2 2 3 2 1 2 2 2 2 2 2 2 2 2 2
2 1 1 1 1 1 0 1 1 1 1 0 0 0 0 0 1 1 1 1 1 2 1 2 2 2 2 2 2 2 2 1 1 2 2 2 3 3 3 2 2 3 2
3 2 2 1 1 1 1 1 1 1 1 1 1 1 1 1 1 1 1 1 1 2 2 1 2 2 2 2 3 3 3 2 2 1 1 2 3 2 3 4 3 3 3
3 2 2 1 1 1 1 1 1 1 1 1 1 2 1 1 0 0 0 1 1 1 1 1 2 2 2 2 2 3 3 3 2 2 1 2 2 2 2 3 3 3 4
2 1 1 1 1 1 1 1 1 1 1 1 2 2 1 1 0 0 1 0 1 1 0 1 1 2 2 2 3 2 3 3 3 2 2 2 2 3 3 3 3 4 4
1 1 1 0 0 0 0 1 1 1 1 2 2 2 2 2 1 1 0 0 0 1 0 0 0 1 1 2 2 2 3 3 3 3 2 2 2 3 3 4 4 4 4
1 1 1 1 0 0 0 1 1 1 1 2 2 1 1 1 1 1 0 0 0 0 0 0 0 1 1 1 1 2 2 3 4 4 3 3 3 2 3 3 4 4 4
2 1 1 1 1 0 0 1 1 1 1 2 1 1 1 1 1 1 1 1 0 0 1 1 1 1 1 1 2 2 2 2 3 4 4 3 3 3 3 3 3 4 4
1 1 1 1 1 1 0 0 1 1 1 2 2 2 1 1 1 1 1 0 0 0 1 1 1 1 1 2 2 2 2 2 3 3 3 3 3 3 3 3 3 4 4
1 1 0 1 1 1 1 0 1 1 1 1 1 1 1 1 0 0 0 0 0 0 1 1 1 1 2 3 3 2 2 3 3 2 3 3 3 3 3 3 3 4 4
2 1 0 0 0 1 0 0 1 1 1 1 1 1 1 0 0 0 0 0 0 0 1 1 1 2 2 2 3 2 2 3 4 4 4 5 4 4 3 3 3 4 4
2 2 1 1 1 1 0 0 0 1 1 1 1 1 1 0 0 0 0 1 1 1 1 2 2 2 3 3 3 4 3 4 4 4 5 5 4 5 4 4 5 5 5
2 2 2 2 1 1 1 1 1 1 1 1 1 1 1 1 1 1 1 1 1 1 2 2 2 3 3 3 4 4 4 4 5 5 5 5 5 6 5 5 5 4 4
4 3 3 2 2 2 2 2 2 1 2 2 2 2 1 2 1 1 1 1 2 2 2 2 3 3 4 4 4 4 4 5 5 5 5 6 6 6 6 5 6 5 5
5 5 4 3 3 3 3 2 2 2 2 2 2 2 2 2 2 2 2 2 2 3 3 3 3 4 4 4 4 4 5 5 5 5 5 6 7 8 7 6 6 6 5
6 6 5 4 4 4 3 3 3 3 3 3 2 2 2 2 2 2 2 2 3 3 3 3 4 4 3 5 6 6 5 5 6 6 6 6 7 8 10 10 10 9 7
6 6 6 5 5 4 4 4 3 3 3 3 3 3 2 2 2 2 2 3 3 3 3 4 4 4 4 6 7 7 6 6 6 6 6 5 5 7 7 8 9 10 11
7 6 5 5 4 3 3 3 3 3 3 3 3 3 3 3 3 3 3 3 3 3 4 4 5 5 5 6 7 7 6 6 6 6 7 7 7 6 7 7 7 7 7
6 6 5 5 4 4 4 4 4 3 3 4 4 3 3 3 3 3 3 3 3 4 4 4 5 5 6 7 7 7 5 5 6 6 7 7 7 8 8 7 7 7 6
5 5 4 4 4 4 3 4 4 4 4 4 4 4 4 4 4 4 4 3 4 4 4 5 5 6 6 7 7 7 4 5 5 5 6 8 8 8 8 7 6 7 6
4 4 4 4 4 4 4 5 5 5 4 4 4 4 4 4 4 4 4 4 4 4 4 5 5 5 6 7 7 8 5 5 5 5 5 5 8 9 9 8 6 7 6
4 4 4 4 3 3 4 5 5 4 3 4 4 4 4 3 3 4 4 4 4 5 5 4 5 4 5 6 7 8 8 7 6 5 5 5 8 9 9 7 7 7 6
4 4 4 3 3 3 5 6 4 3 3 4 4 4 4 4 4 4 4 4 4 4 4 4 4 4 4 5 8 8 8 8 6 5 7 8 9 8 7 7 7 5 4
4 4 4 4 4 4 4 5 4 3 4 4 4 4 4 3 3 3 4 4 4 4 4 4 4 4 4 4 4 4 5 6 5 5 6 7 7 6 6 6 5 3 3
4 4 4 4 5 4 4 4 4 4 5 4 4 4 4 4 4 4 4 4 5 5 5 5 4 5 5 5 7 6 5 4 4 4 4 4 3 3 3 3 3 3 3
4 4 4 4 4 4 4 3 4 4 5 4 4 4 3 3 3 4 4 6 7 8 9 9 8 7 8 10 9 9 8 7 6 4 4 4 4 4 4 3 3 3 3
Wind_Direction
236 246 239 214 184 147 110 98 113 102 110 124 149 169 153 149 122 114 130 132 144 157 158 161 156 165 167 174 178 170 170 164 172 197 206 206 213 222 223 239 246 244 258
224 218 217 193 201 190 156 159 151 115 108 105 159 216 171 164 133 112 97 112 149 139 146 170 157 169 169 171 171 160 169 156 183 206 213 227 211 207 229 243 251 257 258
229 228 223 211 191 212 232 213 176 137 117 115 131 119 124 129 143 134 126 100 159 162 141 148 164 166 163 182 185 184 185 181 186 208 224 233 242 227 213 230 244 258 260
223 229 228 232 216 234 233 217 172 132 138 143 131 141 152 149 210 320 74 120 140 142 158 152 183 174 174 180 197 199 202 198 197 204 238 274 295 254 247 223 235 250 257
226 220 238 252 260 243 227 215 172 145 143 145 142 153 145 119 105 104 61 43 138 118 126 150 190 178 183 182 197 205 211 212 213 207 210 232 247 253 254 259 252 247 246
189 153 74 43 348 295 213 211 171 150 154 157 156 153 145 138 115 91 86 239 193 144 111 189 225 202 194 191 202 208 219 225 225 219 211 219 229 240 249 260 268 266 262
137 102 68 42 28 68 176 203 175 166 172 171 163 158 158 151 142 159 240 256 258 36 345 249 234 246 213 202 201 202 218 229 228 228 229 230 239 253 258 265 271 273 275
113 93 68 37 8 27 166 193 188 188 186 186 178 163 157 162 159 198 230 256 270 6 341 303 275 289 246 208 208 200 218 240 238 235 233 236 239 241 244 252 266 272 266
132 113 83 37 16 19 78 174 189 191 194 192 185 174 162 157 158 171 208 221 317 354 300 311 289 271 277 250 222 223 218 228 242 244 238 237 240 244 249 253 253 261 272
162 139 96 18 6 15 33 127 174 187 192 181 169 150 160 156 146 184 176 114 24 9 279 285 295 283 269 261 233 227 230 228 234 241 244 244 245 246 248 250 253 254 264
195 196 212 324 57 86 85 135 164 173 188 191 175 170 166 114 90 94 12 332 346 299 285 283 293 284 280 274 250 239 235 237 238 236 241 246 250 250 249 251 249 251 252
210 206 222 235 190 155 147 170 196 191 208 210 188 176 173 164 181 358 338 313 302 300 294 285 278 278 271 269 258 249 243 242 244 245 246 247 248 248 250 248 249 251 252
219 222 229 233 215 205 206 207 214 220 213 210 201 194 203 223 246 274 290 282 285 289 285 283 278 278 272 269 258 256 254 250 247 250 251 250 248 250 251 251 253 255 257
238 238 242 238 224 221 221 215 209 206 202 200 205 213 233 248 255 267 275 281 280 278 278 280 281 279 275 267 261 259 260 257 254 254 254 254 251 252 253 253 255 257 258
240 240 244 242 230 224 222 217 213 210 209 208 209 218 234 245 250 255 263 271 274 278 282 283 282 278 273 265 268 265 263 260 259 259 256 255 258 260 259 258 257 256 256
236 236 239 240 234 227 223 216 213 212 219 221 220 220 228 233 240 248 255 258 264 270 275 275 276 275 273 279 272 272 266 261 258 259 259 258 254 256 258 260 261 259 255
233 230 231 232 232 227 223 222 218 212 216 220 222 224 231 238 245 252 254 259 267 272 271 275 276 276 276 275 271 270 268 262 260 260 261 262 262 261 259 259 259 257 258
232 228 229 230 226 218 215 212 207 210 217 224 228 228 234 246 255 258 262 270 273 273 276 278 277 277 278 278 277 276 268 264 261 260 260 263 264 262 265 263 261 259 258
231 226 224 219 214 214 208 202 205 210 219 227 233 234 235 242 248 255 263 268 269 272 276 278 277 278 282 283 284 280 269 262 263 262 261 262 264 267 268 262 260 264 267
229 221 214 209 210 212 203 206 213 217 225 231 235 234 235 239 245 254 259 262 264 268 273 275 275 277 280 284 284 281 269 267 269 269 266 259 264 270 267 261 257 261 270
223 212 206 210 213 208 203 215 222 227 232 235 235 234 235 239 245 252 254 257 260 267 271 275 276 277 281 284 284 280 273 270 272 271 270 267 267 269 271 270 262 270 280
219 211 210 218 218 209 208 222 230 230 227 226 229 231 233 235 240 245 251 253 257 264 269 273 279 280 282 282 283 282 279 282 274 271 272 271 269 269 269 268 271 277 276
223 218 212 221 230 223 217 229 232 219 218 223 229 231 232 235 238 243 249 252 253 259 267 270 277 282 284 284 284 282 281 281 279 278 281 281 278 277 269 266 269 266 261
224 216 210 220 229 229 228 233 227 214 216 221 226 229 230 234 236 241 245 249 250 256 262 266 274 279 280 280 285 281 278 277 278 281 281 280 278 275 274 270 259 253 256
222 213 214 223 231 229 230 230 221 207 214 221 225 228 231 236 240 242 247 251 252 257 261 264 268 274 277 283 294 295 290 289 288 292 282 278 277 271 270 268 265 262 258
219 217 223 228 232 228 229 228 220 210 211 218 223 225 227 232 240 247 254 250 254 267 267 270 273 276 279 290 290 291 293 296 297 286 273 271 270 272 272 269 268 264 261